TimeEST,TemperatureF,Dew PointF,Humidity,Sea Level PressureIn,VisibilityMPH,Wind Direction,Wind SpeedMPH,Gust SpeedMPH,PrecipitationIn,Events,Conditions,WindDirDegrees,DateUTC
12:52 AM,34.0,15.1,46,30.34,10.0,NNE,12.7,-,N/A,,Overcast,20,2013-02-22 05:52:00
1:52 AM,33.1,15.1,48,30.34,10.0,North,10.4,-,N/A,,Overcast,10,2013-02-22 06:52:00
2:52 AM,32.0,16.0,52,30.35,10.0,NNW,8.1,-,N/A,,Overcast,340,2013-02-22 07:52:00
3:52 AM,32.0,15.1,50,30.39,10.0,NNW,8.1,-,N/A,,Overcast,340,2013-02-22 08:52:00
4:52 AM,32.0,16.0,52,30.39,10.0,NNW,8.1,-,N/A,,Overcast,340,2013-02-22 09:52:00
5:52 AM,33.1,16.0,50,30.38,10.0,NE,8.1,-,N/A,,Overcast,40,2013-02-22 10:52:00
6:52 AM,32.0,17.6,55,30.39,10.0,NNE,8.1,-,N/A,,Overcast,30,2013-02-22 11:52:00
7:52 AM,32.0,17.1,54,30.40,10.0,NE,8.1,-,N/A,,Overcast,50,2013-02-22 12:52:00
8:52 AM,33.1,18.0,54,30.38,10.0,East,8.1,-,N/A,,Overcast,80,2013-02-22 13:52:00
9:52 AM,33.1,19.0,56,30.36,10.0,ENE,8.1,-,N/A,,Overcast,70,2013-02-22 14:52:00
10:52 AM,34.0,19.0,54,30.35,10.0,ESE,9.2,-,N/A,,Overcast,110,2013-02-22 15:52:00
11:32 AM,33.8,19.4,56,30.36,10.0,SE,5.8,-,0.00,Snow,Light Snow,130,2013-02-22 16:32:00
11:52 AM,34.0,21.0,59,30.36,5.0,South,5.8,-,0.00,Snow,Light Snow,170,2013-02-22 16:52:00
12:15 PM,33.8,21.2,60,30.35,10.0,South,5.8,-,0.00,,Overcast,190,2013-02-22 17:15:00
12:24 PM,33.8,21.2,60,30.35,10.0,South,3.5,-,0.00,Rain-Snow,Light Rain,180,2013-02-22 17:24:00
12:32 PM,33.8,21.2,60,30.34,10.0,South,4.6,-,0.00,Rain-Snow,Light Rain,180,2013-02-22 17:32:00
12:39 PM,33.8,21.2,60,30.34,8.0,Calm,Calm,-,0.00,Rain,Light Rain,0,2013-02-22 17:39:00
12:52 PM,33.1,23.0,66,30.33,10.0,Calm,Calm,-,0.00,Rain,Light Rain,0,2013-02-22 17:52:00
1:52 PM,33.1,25.0,72,30.33,4.0,SW,3.5,-,0.03,Rain,Light Rain,220,2013-02-22 18:52:00
2:09 PM,33.8,26.6,75,30.32,10.0,South,4.6,-,0.00,Rain,Light Rain,180,2013-02-22 19:09:00
2:44 PM,33.8,26.6,75,30.31,6.0,SE,3.5,-,0.00,Rain,Light Rain,140,2013-02-22 19:44:00
2:52 PM,33.1,27.0,78,30.31,8.0,SSE,5.8,-,0.01,Rain,Light Rain,160,2013-02-22 19:52:00
3:43 PM,33.8,26.6,75,30.30,10.0,South,3.5,-,0.00,,Overcast,180,2013-02-22 20:43:00
3:52 PM,33.1,27.0,78,30.31,10.0,South,3.5,-,0.00,,Overcast,170,2013-02-22 20:52:00
4:33 PM,33.8,26.6,75,30.30,10.0,SE,3.5,-,0.00,Rain,Light Rain,140,2013-02-22 21:33:00
4:52 PM,34.0,26.1,73,30.30,10.0,SE,3.5,-,0.00,,Overcast,130,2013-02-22 21:52:00
5:00 PM,33.8,26.6,75,30.29,10.0,East,4.6,-,N/A,,Overcast,100,2013-02-22 22:00:00
5:52 PM,33.1,27.0,78,30.29,8.0,SSE,4.6,-,0.01,Rain,Light Rain,160,2013-02-22 22:52:00
6:52 PM,34.0,27.0,75,30.29,10.0,SE,5.8,-,0.00,,Overcast,140,2013-02-22 23:52:00
7:52 PM,34.0,28.0,79,30.29,10.0,ESE,3.5,-,N/A,,Overcast,110,2013-02-23 00:52:00
8:52 PM,34.0,28.0,79,30.28,10.0,ESE,3.5,-,N/A,,Overcast,110,2013-02-23 01:52:00
9:52 PM,34.0,28.9,82,30.27,10.0,SSE,3.5,-,N/A,,Overcast,160,2013-02-23 02:52:00
10:00 PM,33.8,28.4,81,30.27,10.0,SE,4.6,-,N/A,,Overcast,140,2013-02-23 03:00:00
10:41 PM,33.8,30.2,87,30.26,6.0,SE,4.6,-,0.00,,Light Drizzle,140,2013-02-23 03:41:00
10:52 PM,34.0,30.0,85,30.25,5.0,SE,3.5,-,0.00,,Light Drizzle,130,2013-02-23 03:52:00
11:21 PM,33.8,30.2,87,30.25,4.0,Calm,Calm,-,0.00,Rain,Light Rain,0,2013-02-23 04:21:00
11:43 PM,33.8,30.2,87,30.24,4.0,Calm,Calm,-,0.01,,Light Drizzle,0,2013-02-23 04:43:00
11:52 PM,34.0,30.9,89,30.24,5.0,Calm,Calm,-,0.01,,Light Drizzle,0,2013-02-23 04:52:00